Norman Y. Mineta San Jose International Airport San Jose US
ICAO: KSJC
IATA: SJC
Category: Large
Scheduled Services: Yes

Elevation: 62 ft
TransAlt. 18000 ft.

Airport Communications:
NORCAL APP:33.82
NORCAL APP:120.1
ATIS:126.95
CLNC DEL:118
CTAF:124
NORCAL DEP:121.3
GND:121.7
TWR:124

KSJC Zoom In..

If you have problems with the map follow the link
https://www.worldairports.se/pages/airport.php?
ICAO=KSJC

Runways:

(A) RW 11 length 4599 ft width 100 ft
---- / hdg 123

(B) RW 12L length 11000 ft width 150 ft
---- / hdg 123

(C) RW 12R length 11000 ft width 150 ft
ILS 110.90 / hdg 123

(D) RW 29 length 4599 ft width 100 ft
---- / hdg 303

(E) RW 30L length 11000 ft width 150 ft
ILS 110.90 / hdg 303

(F) RW 30R length 11000 ft width 150 ft
---- / hdg 303

Location; KSJC
Day. 27 / Time. 04.53 Zulu
* Altimeter: 30.33
* Temperature: 12° c. 53.6°f.
* Wind from: 010° Speed 04 kn.
Dewpoint: 07° c.
Visibility: 10 Statute Miles.
Clouds: Clear (automated report).

KSJC 270453Z 01004KT 10SM CLR 12/07 A3033 RMK AO2 SLP269 T01220067


Wind From 010°
Speed 04 kn.

 
 
jpsmedia worldairports.se 2020   terms of use